Ramstein, Germany

9:54 AM CEST on May 27, 2017 (GMT +0200)
Ramstein Air Base

Weather History for ETAR - October, 2012

Change the Weather History Date:

Monday, October 8, 2012

  Actual Average Record
Temperature  
Mean Temperature 42 °F -  
Max Temperature 57 °F 54 °F 86 °F (2003)
Min Temperature 28 °F 39 °F 28 °F (2012)
Degree Days  
Heating Degree Days 23    
Moisture  
Dew Point 40 °F    
Average Humidity 90    
Maximum Humidity 100    
Minimum Humidity 57    
Precipitation  
Precipitation 0.07 in - - ()
Sea Level Pressure  
Sea Level Pressure 30.06 in    
Wind  
Wind Speed 2 mph ()    
Max Wind Speed 6 mph    
Max Gust Speed -    
Visibility 5.2 miles    
Events Rain    
Averages and records for this station are not official NWS values.
T = Trace of Precipitation, MM = Missing Value Source: Averaged Metar Reports

Daily Weather History Graph

Daily Weather History Graph

Search for Another Location

Airport or City:

Trip Planner

Search our weather history database for the weather conditions in past years. The results will help you decide how hot, cold, wet, or windy it might be!

Date:

Astronomy

Oct. 08, 2012 Rise Set
Actual Time 7:40 AM CEST 6:52 PM CEST
Civil Twilight 7:08 AM CEST 7:24 PM CEST
Nautical Twilight 6:31 AM CEST 8:01 PM CEST
Astronomical Twilight 5:54 AM CEST 8:38 PM CEST
Moon No Moon Rise 3:05 PM CEST (10/8)
Length of Visible Light 12h 16m
Length of Day
11h 12m
Waning Gibbous, 49% of the Moon is Illuminated
Oct 8
Waning Gibbous
Oct 15
New
Oct 22
First Quarter
Oct 29
Full
Nov 7
Last Quarter

Hourly Weather History & Observations

Time (CEST) Temp. Windchill Dew Point Humidity Pressure Visibility Wind Dir Wind Speed Gust Speed Precip Events Conditions
12:03 AM 35.6 °F - 35.6 °F 100% 30.25 in - NE 2.3 mph - N/A   Clear
12:04 AM 35.6 °F - 33.8 °F 93% 30.25 in 2.5 mi ENE 2.3 mph - N/A   Clear
12:05 AM 35.6 °F - 33.8 °F 93% 30.25 in - NE 2.3 mph - N/A   Clear
12:06 AM 35.6 °F - 33.8 °F 93% 30.25 in 6.2 mi Calm Calm - N/A   Clear
12:46 AM 33.8 °F - 32.0 °F 93% 30.24 in - ENE 1.2 mph - N/A   Clear
12:47 AM 33.8 °F - 32.0 °F 93% 30.24 in - ENE 1.2 mph - N/A   Clear
12:48 AM 33.8 °F - 32.0 °F 93% 30.24 in - ENE 2.3 mph - N/A   Clear
12:49 AM 33.8 °F - 32.0 °F 93% 30.24 in - East 2.3 mph - N/A   Clear
12:50 AM 32.0 °F 28.7 °F 32.0 °F 100% 30.24 in - East 3.5 mph - N/A   Clear
12:51 AM 32.0 °F 28.7 °F 32.0 °F 100% 30.24 in - East 3.5 mph - N/A   Clear
12:52 AM 32.0 °F 28.7 °F 32.0 °F 100% 30.24 in - East 3.5 mph - N/A   Clear
12:53 AM 32.0 °F 28.7 °F 32.0 °F 100% 30.24 in - East 3.5 mph - N/A   Clear
12:54 AM 32.0 °F - 32.0 °F 100% 30.24 in 3.7 mi East 2.3 mph - N/A   Clear
12:55 AM 32.0 °F - 32.0 °F 100% 30.24 in 5.0 mi East 2.3 mph - N/A   Clear
12:58 AM 32.0 °F - 32.0 °F 100% 30.27 in 5.6 mi East 2.3 mph - N/A   Clear
1:39 AM 32.0 °F - 32.0 °F 100% 30.24 in 2.5 mi East 2.3 mph - N/A   Clear
1:40 AM 32.0 °F - 32.0 °F 100% 30.24 in 1.7 mi East 2.3 mph - N/A   Clear
1:41 AM 32.0 °F - 32.0 °F 100% 30.24 in 1.2 mi East 2.3 mph - N/A   Clear
1:48 AM 32.0 °F - 32.0 °F 100% 30.24 in 1.5 mi Calm Calm - N/A   Clear
1:49 AM 32.0 °F - 32.0 °F 100% 30.24 in 1.7 mi Calm Calm - N/A   Clear
1:50 AM 32.0 °F - 32.0 °F 100% 30.24 in 2.5 mi Calm Calm - N/A   Clear
1:51 AM 32.0 °F - 32.0 °F 100% 30.24 in 3.7 mi Calm Calm - N/A   Clear
1:58 AM 33.1 °F - 31.8 °F 95% 30.27 in 6.2 mi NE 1.2 mph - N/A   Clear
2:58 AM 31.1 °F - 29.7 °F 94% 30.27 in 6.2 mi Calm Calm - N/A   Clear
3:58 AM 32.2 °F - 30.9 °F 95% 30.25 in 6.2 mi Calm Calm - N/A   Clear
4:58 AM 31.5 °F - 30.2 °F 95% 30.24 in 6.2 mi Calm Calm - N/A   Partly Cloudy
5:58 AM 32.7 °F - 31.5 °F 95% 30.22 in 6.2 mi Calm Calm - N/A   Clear
6:58 AM 31.6 °F - 30.0 °F 94% 30.23 in 6.2 mi Calm Calm - N/A   Clear
7:30 AM 30.2 °F - 28.4 °F 93% 30.17 in - East 2.3 mph - N/A   Clear
7:31 AM 28.4 °F - 26.6 °F 93% 30.17 in 2.5 mi East 2.3 mph - N/A   Clear
7:38 AM 30.2 °F - 28.4 °F 93% 30.17 in 3.7 mi East 2.3 mph - N/A   Clear
7:58 AM 30.6 °F - 28.9 °F 94% 30.21 in 6.2 mi NE 1.2 mph - N/A   Clear
8:58 AM 34.7 °F - 32.7 °F 92% 30.22 in 6.2 mi NE 1.2 mph - N/A   Clear
9:58 AM 41.0 °F 37.1 °F 37.9 °F 89% 30.20 in 6.2 mi East 5.8 mph - N/A   Clear
10:58 AM 45.5 °F 43.2 °F 41.2 °F 85% 30.18 in 6.2 mi NE 4.6 mph - N/A   Clear
11:58 AM 51.4 °F - 41.7 °F 69% 30.16 in 6.2 mi East 5.8 mph - N/A   Clear
12:58 PM 54.9 °F - 41.9 °F 62% 30.13 in 6.2 mi East 4.6 mph - N/A   Clear
1:58 PM 56.1 °F - 41.5 °F 58% 30.12 in 6.2 mi Calm Calm - N/A   Partly Cloudy
2:58 PM 56.7 °F - 41.4 °F 57% 30.08 in 6.2 mi South 5.8 mph - N/A   Scattered Clouds
3:58 PM 56.7 °F - 41.5 °F 57% 30.06 in 6.2 mi SSE 2.3 mph - N/A   Partly Cloudy
4:58 PM 56.3 °F - 43.0 °F 61% 30.05 in 6.2 mi SSE 3.5 mph - N/A   Mostly Cloudy
5:58 PM 54.9 °F - 44.8 °F 69% 30.03 in 6.2 mi SSE 2.3 mph - N/A   Mostly Cloudy
6:58 PM 53.1 °F - 44.4 °F 72% 30.01 in 6.2 mi SE 2.3 mph - N/A   Partly Cloudy
7:58 PM 50.5 °F - 45.3 °F 82% 30.01 in 6.2 mi Calm Calm - N/A   Mostly Cloudy
8:32 PM 50.0 °F - 46.4 °F 87% 29.96 in 6.2 mi ENE 1.2 mph - N/A Rain Light Rain
8:58 PM 49.5 °F - 46.4 °F 89% 29.99 in 6.2 mi Calm Calm - 0.00 in Rain Light Rain
9:08 PM 50.0 °F - 46.4 °F 87% 29.95 in 6.2 mi Calm Calm - N/A   Mostly Cloudy
9:18 PM 50.0 °F - 46.4 °F 87% 29.94 in 6.2 mi East 2.3 mph - N/A   Mostly Cloudy
9:37 PM 50.0 °F - 46.4 °F 87% 29.93 in 6.2 mi Calm Calm - N/A   Overcast
9:39 PM 50.0 °F - 46.4 °F 87% 29.93 in 6.2 mi Calm Calm - N/A Rain Light Rain
9:48 PM 50.0 °F - 46.4 °F 87% 29.93 in 6.2 mi Calm Calm - N/A   Overcast
9:58 PM 49.6 °F - 47.3 °F 92% 29.96 in 6.2 mi Calm Calm - 0.00 in   Overcast
10:08 PM 50.0 °F - 46.4 °F 87% 29.92 in 6.2 mi Variable 1.2 mph - N/A Rain Light Rain
10:10 PM 50.0 °F - 46.4 °F 87% 29.92 in 6.2 mi Variable 2.3 mph - N/A Rain Light Rain
10:23 PM 50.0 °F - 46.4 °F 87% 29.92 in 6.2 mi NNW 2.3 mph - N/A   Light Drizzle
10:26 PM 50.0 °F - 46.4 °F 87% 29.92 in 6.2 mi Calm Calm - N/A   Light Drizzle
10:30 PM 50.0 °F - 46.4 °F 87% 29.92 in 6.2 mi Calm Calm - N/A   Overcast
10:33 PM 50.0 °F - 46.4 °F 87% 29.92 in 6.2 mi Calm Calm - N/A Rain Light Rain
10:52 PM 50.0 °F - 48.2 °F 94% 29.91 in 6.2 mi Calm Calm - N/A Rain Light Rain
10:57 PM 50.0 °F - 48.2 °F 94% 29.91 in 6.2 mi Calm Calm - N/A Rain Light Rain
10:58 PM 50.5 °F - 47.7 °F 90% 29.93 in 6.2 mi ESE 1.2 mph - 0.01 in Rain Light Rain
11:29 PM 50.0 °F - 48.2 °F 94% 29.89 in - North 2.3 mph - N/A Rain Rain
11:30 PM 50.0 °F - 48.2 °F 94% 29.89 in - North 2.3 mph - N/A Rain Rain
11:31 PM 50.0 °F - 48.2 °F 94% 29.89 in - North 1.2 mph - N/A Rain Rain
11:32 PM 50.0 °F - 48.2 °F 94% 29.89 in - Calm Calm - N/A Rain Rain
11:33 PM 50.0 °F - 48.2 °F 94% 29.89 in - Calm Calm - N/A Rain Light Rain
11:34 PM 50.0 °F - 48.2 °F 94% 29.89 in - Calm Calm - N/A Rain Light Rain
11:35 PM 50.0 °F - 48.2 °F 94% 29.89 in - Calm Calm - N/A Rain Light Rain
11:36 PM 50.0 °F - 48.2 °F 94% 29.89 in - Calm Calm - N/A Rain Light Rain
11:37 PM 50.0 °F - 48.2 °F 94% 29.89 in - Calm Calm - N/A Rain Light Rain
11:38 PM 50.0 °F - 48.2 °F 94% 29.89 in - Calm Calm - N/A Rain Light Rain
11:39 PM 50.0 °F - 48.2 °F 94% 29.89 in - Calm Calm - N/A Rain Light Rain
11:40 PM 50.0 °F - 48.2 °F 94% 29.89 in - Calm Calm - N/A Rain Light Rain
11:41 PM 50.0 °F - 48.2 °F 94% 29.89 in - Calm Calm - N/A Rain Light Rain
11:42 PM 50.0 °F - 48.2 °F 94% 29.89 in - Variable 2.3 mph - N/A Rain Light Rain
11:44 PM 50.0 °F - 48.2 °F 94% 29.89 in - North 4.6 mph - N/A Rain Light Rain
11:45 PM 50.0 °F - 48.2 °F 94% 29.89 in - North 3.5 mph - N/A Rain Light Rain
11:46 PM 50.0 °F - 48.2 °F 94% 29.89 in - North 3.5 mph - N/A Rain Light Rain
11:47 PM 50.0 °F - 48.2 °F 94% 29.88 in 3.7 mi North 4.6 mph - N/A Rain Light Rain
11:51 PM 50.0 °F - 48.2 °F 94% 29.88 in 5.0 mi North 3.5 mph - N/A Rain Light Rain
11:58 PM 49.8 °F - 47.8 °F 93% 29.90 in 3.7 mi North 2.3 mph - 0.06 in Rain Light Rain
11:59 PM 50.0 °F - 48.2 °F 94% 29.88 in 3.7 mi North 1.2 mph - N/A Rain Light Rain